Hourly Weather Lugo

Today, 18 May, Tuesday

Time Temperature Precipitation Wind Pressure Humidity
00:00 +11°C° 0.1 mm 1 mps 723 mmHg 87%
01:00 +11°C° 0.1 mm 1 mps 723 mmHg 86%
02:00 +12°C° 0.1 mm 1 mps 722 mmHg 86%
03:00 +12°C° 0.4 mm 1 mps 722 mmHg 90%
04:00 +12°C° 0.4 mm 1 mps 722 mmHg 94%
05:00 +12°C° 0.4 mm 1 mps 723 mmHg 98%
06:00 +12°C° 0.1 mm 1 mps 723 mmHg 97%
07:00 +13°C° 0.1 mm 1 mps 723 mmHg 97%
08:00 +13°C° 0.1 mm 2 mps 724 mmHg 97%
09:00 +14°C° 0.3 mm 2 mps 724 mmHg 90%
10:00 +15°C° 0.3 mm 2 mps 725 mmHg 84%
11:00 +16°C° 0.3 mm 2 mps 725 mmHg 78%
12:00 +17°C° 0.1 mm 3 mps 725 mmHg 68%
13:00 +18°C° 0.1 mm 3 mps 725 mmHg 58%
14:00 +19°C° 0.1 mm 3 mps 726 mmHg 48%
15:00 +17°C° 0 mm 3 mps 726 mmHg 53%
16:00 +16°C° 0 mm 3 mps 726 mmHg 58%
17:00 +14°C° 0 mm 3 mps 727 mmHg 63%
18:00 +13°C° 0 mm 2 mps 727 mmHg 75%
19:00 +11°C° 0 mm 1 mps 728 mmHg 86%
20:00 +8°C° 0 mm 1 mps 728 mmHg 97%
21:00 +8°C° 0 mm 1 mps 728 mmHg 96%
22:00 +7°C° 0 mm 0 mps 729 mmHg 95%
23:00 +7°C° 0 mm 0 mps 729 mmHg 95%

Tomorrow, 19 May, Wednesday

Time Temperature Precipitation Wind Pressure Humidity
00:00 +6°C° 0 mm 0 mps 729 mmHg 95%
01:00 +6°C° 0 mm 0 mps 729 mmHg 96%
02:00 +6°C° 0 mm 0 mps 729 mmHg 96%
03:00 +6°C° 0 mm 0 mps 729 mmHg 96%
04:00 +6°C° 0 mm 0 mps 729 mmHg 95%
05:00 +6°C° 0 mm 0 mps 729 mmHg 95%
06:00 +9°C° 0 mm 1 mps 729 mmHg 80%
07:00 +12°C° 0 mm 1 mps 730 mmHg 66%
08:00 +14°C° 0 mm 1 mps 730 mmHg 51%
09:00 +16°C° 0 mm 1 mps 730 mmHg 45%
10:00 +18°C° 0 mm 1 mps 729 mmHg 39%
11:00 +19°C° 0 mm 2 mps 729 mmHg 32%
12:00 +19°C° 0 mm 2 mps 729 mmHg 33%
13:00 +20°C° 0 mm 2 mps 729 mmHg 33%
14:00 +20°C° 0 mm 2 mps 729 mmHg 34%
15:00 +19°C° 0 mm 2 mps 729 mmHg 40%
16:00 +18°C° 0 mm 2 mps 729 mmHg 47%
17:00 +17°C° 0 mm 2 mps 729 mmHg 53%
18:00 +15°C° 0 mm 2 mps 729 mmHg 64%
19:00 +12°C° 0 mm 1 mps 730 mmHg 75%
20:00 +9°C° 0 mm 1 mps 730 mmHg 86%
21:00 +9°C° 0 mm 1 mps 730 mmHg 87%
22:00 +8°C° 0 mm 1 mps 729 mmHg 89%
23:00 +8°C° 0 mm 1 mps 729 mmHg 90%

Day after tomorrow, 20 May, Thursday

Time Temperature Precipitation Wind Pressure Humidity
00:00 +7°C° 0 mm 0 mps 729 mmHg 90%
01:00 +7°C° 0 mm 0 mps 729 mmHg 89%
02:00 +7°C° 0 mm 0 mps 728 mmHg 89%
03:00 +7°C° 0 mm 0 mps 728 mmHg 86%
04:00 +8°C° 0 mm 0 mps 728 mmHg 84%
05:00 +8°C° 0 mm 0 mps 728 mmHg 82%
06:00 +11°C° 0 mm 0 mps 728 mmHg 70%
07:00 +15°C° 0 mm 0 mps 728 mmHg 58%
08:00 +20°C° 0 mm 1 mps 728 mmHg 46%
09:00 +22°C° 0 mm 1 mps 728 mmHg 43%
10:00 +24°C° 0 mm 1 mps 727 mmHg 40%
11:00 +26°C° 0 mm 1 mps 727 mmHg 37%
12:00 +26°C° 0 mm 1 mps 727 mmHg 38%
13:00 +27°C° 0 mm 1 mps 726 mmHg 39%
14:00 +27°C° 0 mm 2 mps 726 mmHg 40%
15:00 +25°C° 0 mm 1 mps 726 mmHg 46%
16:00 +24°C° 0 mm 1 mps 726 mmHg 53%
17:00 +22°C° 0 mm 1 mps 726 mmHg 60%
18:00 +20°C° 0 mm 1 mps 726 mmHg 67%
19:00 +16°C° 0 mm 1 mps 726 mmHg 73%
20:00 +12°C° 0 mm 0 mps 726 mmHg 80%
21:00 +12°C° 0 mm 0 mps 726 mmHg 80%
22:00 +11°C° 0 mm 0 mps 725 mmHg 81%
23:00 +10°C° 0 mm 0 mps 725 mmHg 81%

21 May, Friday

Time Temperature Precipitation Wind Pressure Humidity
00:00 +10°C° 0 mm 0 mps 725 mmHg 83%
01:00 +9°C° 0 mm 0 mps 725 mmHg 84%
02:00 +8°C° 0 mm 0 mps 725 mmHg 85%
03:00 +9°C° 0 mm 0 mps 725 mmHg 86%
04:00 +9°C° 0 mm 0 mps 725 mmHg 86%
05:00 +9°C° 0 mm 0 mps 725 mmHg 86%
06:00 +11°C° 0 mm 1 mps 725 mmHg 84%
07:00 +12°C° 0 mm 1 mps 725 mmHg 83%
08:00 +13°C° 0 mm 1 mps 726 mmHg 82%
09:00 +15°C° 0 mm 2 mps 726 mmHg 71%
10:00 +16°C° 0 mm 2 mps 726 mmHg 61%
11:00 +17°C° 0 mm 2 mps 726 mmHg 50%
12:00 +18°C° 0 mm 3 mps 726 mmHg 46%
13:00 +18°C° 0 mm 3 mps 725 mmHg 42%
14:00 +19°C° 0 mm 4 mps 725 mmHg 38%
15:00 +17°C° 0 mm 3 mps 725 mmHg 43%
16:00 +16°C° 0 mm 3 mps 726 mmHg 48%
17:00 +13°C° 0 mm 3 mps 726 mmHg 54%
18:00 +12°C° 0 mm 2 mps 726 mmHg 65%
19:00 +10°C° 0 mm 1 mps 727 mmHg 76%
20:00 +7°C° 0 mm 1 mps 727 mmHg 88%
21:00 +7°C° 0 mm 1 mps 727 mmHg 89%
22:00 +7°C° 0 mm 1 mps 727 mmHg 91%
23:00 +7°C° 0 mm 1 mps 727 mmHg 92%

22 May, Saturday

Time Temperature Precipitation Wind Pressure Humidity
00:00 +7°C° 0 mm 1 mps 727 mmHg 93%
01:00 +7°C° 0 mm 1 mps 726 mmHg 94%
02:00 +7°C° 0 mm 1 mps 726 mmHg 95%
03:00 +7°C° 0 mm 1 mps 726 mmHg 95%
04:00 +7°C° 0 mm 1 mps 726 mmHg 94%
05:00 +7°C° 0 mm 1 mps 726 mmHg 94%
06:00 +9°C° 0 mm 1 mps 726 mmHg 84%
07:00 +10°C° 0 mm 1 mps 727 mmHg 75%
08:00 +12°C° 0 mm 2 mps 727 mmHg 66%
09:00 +12°C° 0.1 mm 2 mps 727 mmHg 63%
10:00 +13°C° 0.1 mm 2 mps 727 mmHg 61%
11:00 +14°C° 0.1 mm 2 mps 726 mmHg 58%
12:00 +15°C° 0 mm 2 mps 726 mmHg 53%
13:00 +14°C° 0 mm 3 mps 726 mmHg 47%
14:00 +16°C° 0 mm 3 mps 726 mmHg 42%
15:00 +14°C° 0 mm 3 mps 726 mmHg 49%
16:00 +13°C° 0 mm 3 mps 726 mmHg 56%
17:00 +12°C° 0 mm 3 mps 726 mmHg 62%
18:00 +10°C° 0 mm 2 mps 727 mmHg 74%
19:00 +9°C° 0 mm 1 mps 727 mmHg 86%
20:00 +7°C° 0 mm 1 mps 728 mmHg 97%
21:00 +6°C° 0 mm 0 mps 728 mmHg 96%
22:00 +6°C° 0 mm 0 mps 728 mmHg 96%
23:00 +6°C° 0 mm 0 mps 728 mmHg 95%

23 May, Sunday

Time Temperature Precipitation Wind Pressure Humidity
00:00 +6°C° 0 mm 0 mps 728 mmHg 95%
01:00 +6°C° 0 mm 0 mps 728 mmHg 95%
02:00 +6°C° 0 mm 0 mps 728 mmHg 95%
03:00 +5°C° 0 mm 0 mps 728 mmHg 95%
04:00 +5°C° 0 mm 0 mps 728 mmHg 95%
05:00 +5°C° 0 mm 0 mps 728 mmHg 96%
06:00 +8°C° 0 mm 1 mps 728 mmHg 82%
07:00 +10°C° 0 mm 1 mps 728 mmHg 69%
08:00 +12°C° 0 mm 1 mps 728 mmHg 56%
09:00 +14°C° 0 mm 2 mps 728 mmHg 51%
10:00 +15°C° 0 mm 2 mps 728 mmHg 45%
11:00 +17°C° 0 mm 2 mps 728 mmHg 40%
12:00 +18°C° 0 mm 2 mps 728 mmHg 39%
13:00 +18°C° 0 mm 2 mps 728 mmHg 38%
14:00 +19°C° 0 mm 2 mps 727 mmHg 37%
15:00 +18°C° 0 mm 3 mps 727 mmHg 43%
16:00 +16°C° 0 mm 3 mps 727 mmHg 50%
17:00 +14°C° 0 mm 3 mps 727 mmHg 56%
18:00 +12°C° 0 mm 3 mps 727 mmHg 66%
19:00 +9°C° 0 mm 2 mps 727 mmHg 77%
20:00 +7°C° 0 mm 2 mps 728 mmHg 88%
21:00 +7°C° 0 mm 1 mps 728 mmHg 91%
22:00 +6°C° 0 mm 1 mps 727 mmHg 94%
23:00 +6°C° 0 mm 1 mps 727 mmHg 98%
Show more

We Need Your Consent

Meteoprog and our Service Providers may store and access personal data such as cookies, device identifiers or other similar technologies on your device and process such data to personalise content and ads, as well as provide social media features and to analyse the traffic.

  • Store and/or access information on your device

    Cookies, device identifiers or other information can be stored or accessed on your device for the purposes indicated above.

  • Personalised ads and content, ad and content measurement, audience insights, and products development

    Ads and content can be personalised based on a profile. More data can be added to better personalise ads and content. Ad and content performance can be measured. Insights about the audience who saw the ads and content can be derived. Such data can be used to develop or improve user’s experience, systems and software.

By clicking ‘I Agree’ you will allow the use of indicated cookies, device identifiers, web beacons or other similar technologies. Your settings can be changed in the browser on your device.

For certain purposes, legitimate interests may be relied on, rather than consent. You can read more about this in our Privacy and Cookie Policy.